Home   Weather   Senftenberg   Past weeks

Flag for Germany Past Weather in Senftenberg, Brandenburg, Germany — Yesterday and Last 2 Weeks

43 °F

Light rain. Partly cloudy.

Feels Like: 40 °F
Forecast: 38 / 51 °F
Wind: 5 mph from Southwest

Location: Dresden-Klotzsche

Current Time: Oct 22, 2016 at 7:58:15 PM

Latest Report: Oct 22, 2016 at 7:20 PM

Visibility: N/A

Pressure: 29.95 "Hg

Humidity: 93%

Dew Point: 41 °F

Location of SenftenbergLocation

Past Weather in Senftenberg — Graph


Senftenberg Temperature Yesterday

Maximum temperature yesterday: 46 °F (at 12:50 PM)
Minimum temperature yesterday: 41 °F (at 9:50 PM)
Average temperature yesterday: 44 °F

High & Low Weather Summary for the Past Weeks

High63 °F (Oct 16, 2:50 PM)100% (Oct 7, 11:50 PM)30.27 "Hg (Oct 7, 11:50 PM)
Low36 °F (Oct 11, 6:50 AM)64% (Oct 16, 2:50 PM)29.80 "Hg (Oct 15, 1:20 AM)
Average47 °F90%30.07 "Hg
* Reported Oct 7 6:20 PM — Oct 22 6:20 PM, Senftenberg, Weather by CustomWeather, © 2016

Note: Actual official high and low records may vary slightly from our data, if they occured in-between our weather recording intervals... More about our weather records


Senftenberg Weather History for the Previous 24 Hours

Scroll right to see more
Time TempWeatherWind HumidityBarometerVisibility
6:20 PM
Sat, Oct 22
43 °FPassing clouds.2 mph87%29.92 "HgN/A
5:50 PM43 °FPartly sunny.2 mph87%29.92 "HgN/A
5:20 PM43 °FRain showers. Broken clouds.3 mph93%29.92 "Hg6 mi
4:50 PM45 °FPartly sunny.5 mph87%29.92 "HgN/A
4:20 PM45 °FLight rain. Partly sunny.6 mph93%29.92 "HgN/A
3:50 PM45 °FLight rain. Partly sunny.6 mph87%29.92 "HgN/A
3:20 PM43 °FLight rain. Partly sunny.8 mph93%29.92 "HgN/A
2:50 PM45 °FLight rain. Partly sunny.6 mph87%29.92 "HgN/A
2:20 PM45 °FLight rain. Partly sunny.5 mph87%29.92 "HgN/A
1:50 PM46 °FCloudy.5 mph82%29.92 "HgN/A
1:20 PM46 °FLight rain. More clouds than sun.6 mph76%29.92 "HgN/A
12:50 PM46 °FMore clouds than sun.6 mph82%29.92 "HgN/A
12:20 PM46 °FPartly sunny.6 mph76%29.92 "HgN/A
11:50 AM45 °FPartly sunny.5 mph81%29.92 "HgN/A
11:20 AM45 °FBroken clouds.7 mph81%29.92 "HgN/A
10:50 AM45 °FSunny.7 mph87%29.92 "Hg10 mi
10:20 AM43 °FPassing clouds.7 mph87%29.92 "HgN/A
9:50 AM41 °FSunny.7 mph93%29.92 "Hg10 mi
9:20 AM41 °FSunny.7 mph93%29.92 "Hg10 mi
8:50 AM41 °FSunny.8 mph93%29.92 "Hg10 mi
8:20 AM39 °FSunny.7 mph100%29.92 "Hg10 mi
7:50 AM39 °FSunny.3 mph100%29.92 "Hg10 mi
7:20 AM37 °FClear.2 mph100%29.92 "Hg6 mi
6:50 AM39 °FClear.2 mph93%29.92 "Hg10 mi
6:20 AM39 °FClear.5 mph100%29.92 "Hg10 mi
5:50 AM41 °FPassing clouds.2 mph93%29.92 "HgN/A
5:20 AM41 °FPassing clouds.3 mph93%29.92 "HgN/A
4:50 AM41 °FPassing clouds.2 mph93%29.92 "HgN/A
4:20 AM41 °FClear.2 mph93%29.92 "Hg10 mi
3:50 AM41 °FPartly cloudy.1 mph93%29.92 "HgN/A
3:20 AM41 °FPartly cloudy.3 mph93%29.92 "HgN/A
2:50 AM41 °FPartly cloudy.5 mph100%29.92 "HgN/A
2:20 AM41 °FLight rain. Passing clouds.5 mph100%29.95 "HgN/A
1:50 AM41 °FLight rain. Partly cloudy.5 mph93%29.95 "HgN/A
1:20 AM41 °FPassing clouds.6 mph93%29.95 "HgN/A
12:50 AM41 °FPassing clouds.6 mph100%29.95 "HgN/A
12:20 AM41 °FClear.7 mph100%29.95 "Hg10 mi
11:50 PM
Fri, Oct 21
41 °FClear.6 mph93%29.95 "Hg10 mi
11:20 PM41 °FPassing clouds.5 mph100%29.95 "HgN/A
10:50 PM41 °FPassing clouds.5 mph100%29.95 "HgN/A
10:20 PM41 °FPassing clouds.3 mph93%29.95 "HgN/A
9:50 PM41 °FPassing clouds.5 mph93%29.95 "HgN/A
9:20 PM43 °FPassing clouds.3 mph87%29.95 "HgN/A
8:50 PM43 °FPassing clouds.2 mph87%29.95 "HgN/A
8:20 PM45 °FPassing clouds.2 mph81%29.95 "HgN/A
7:50 PM43 °FPassing clouds.2 mph87%29.95 "HgN/A
7:20 PM43 °FClear.1 mph87%29.95 "Hg10 mi
Weather by CustomWeather, © 2016

See weather overviewHow to use our weather pages